星链-2076 (STARLINK-2076 )

导读 | 豆包AI

STARLINK-2076是美国SpaceX公司星链(Starlink)星座计划中的一颗低轨卫星,于2021年1月20日发射升空。星链项目旨在通过部署数千颗低轨卫星,为全球尤其是偏远地区提供高速低延迟的卫星互联网服务。作为星链星座的组成部分,该卫星参与构建全球覆盖的通信网络,推动卫星互联网的普及,但也引发了关于太空拥堵与天文观测影响的讨论。

基本信息
目录编号:
47362
目录名称:
STARLINK-2076
国际标识:
2021-005P
轨道中心:
EARTH
卫星名称:
星链-2076
卫星全名:
星链-2076 (STARLINK-2076 )
卫星状态:
在轨 (已飞行1879 天)
发射日期:
2021-01-20 UTC
国别 :
美国 (US)
星等 :
--
轨道信息
数据来源 国际轨道数据
星历时间: 2026-03-14T08:00:02+0800
10小时前
查看轨道信息
半长轴: 6889.51km
偏心率: 0.0002265
轨道倾角: 53.105°
近地点辐角 79.731°
升交点赤经 41.921°
平近点角 45.454°
近地点: 509.812km
远地点: 512.934km
周期: 94.851分钟
每日圈数: 15.181696
详细信息
固有亮度:
5
最大亮度:
2.5
卫星平台:
Starlink V1.0
覆盖范围:
全球
运营商:
太空探索技术公司
运营商所在国:
美国
制造商(研发单位):
太空探索技术公司
制造商所在国:
美国
使用方式:
暂无
卫星简介
星链(Starlink)计划是由太空探索技术公司(SpaceX)提出的一个巨型低轨卫星互联网星座项目,计划在2019年至2024年间在太空搭建由约1.2万颗卫星组成的“星链”网络,其中1584颗将部署在地球上空550千米处的近地轨道,并从2020年开始工作。该卫星仍在工作。
2D轨道图
3D轨道图
轨道高度分析图
轨道倾角分析图
轨道综合分析图
查看轨道综合分析图